Time,TemperatureF,DewpointF,PressureIn,WindDirection,WindDirectionDegrees,WindSpeedMPH,WindSpeedGustMPH,Humidity,HourlyPrecipIn,Conditions,Clouds,dailyrainin,SoftwareType,DateUTC
2013-11-08 00:05:00,32.6,24.9,30.30,SE,145,3.0,3.0,73,0.00,,,0.00,Wunderground v.1.15,2013-11-08 06:05:00,
2013-11-08 00:14:00,32.6,24.9,30.29,SE,142,3.0,3.0,73,0.00,,,0.00,Wunderground v.1.15,2013-11-08 06:14:00,
2013-11-08 00:20:00,32.7,25.0,30.29,SE,142,3.0,3.0,73,0.00,,,0.00,Wunderground v.1.15,2013-11-08 06:20:00,
2013-11-08 00:25:00,32.7,25.0,30.29,SSE,156,2.0,3.0,73,0.00,,,0.00,Wunderground v.1.15,2013-11-08 06:25:00,
2013-11-08 00:35:00,32.6,25.2,30.28,SE,145,4.0,5.0,74,0.00,,,0.00,Wunderground v.1.15,2013-11-08 06:35:00,
2013-11-08 00:40:00,32.7,25.3,30.28,SSE,149,4.0,4.0,74,0.00,,,0.00,Wunderground v.1.15,2013-11-08 06:40:00,
2013-11-08 00:50:00,32.7,25.3,30.27,SE,146,3.0,3.0,74,0.00,,,0.00,Wunderground v.1.15,2013-11-08 06:50:00,
2013-11-08 00:55:00,32.7,25.3,30.27,SSE,150,3.0,3.0,74,0.00,,,0.00,Wunderground v.1.15,2013-11-08 06:55:00,
2013-11-08 01:05:00,33.0,25.6,30.27,SE,145,2.0,5.0,74,0.00,,,0.00,Wunderground v.1.15,2013-11-08 07:05:00,
2013-11-08 01:09:00,33.2,25.8,30.27,SE,146,2.0,2.0,74,0.00,,,0.00,Wunderground v.1.15,2013-11-08 07:09:00,
2013-11-08 01:15:00,33.2,25.8,30.27,SE,145,2.0,2.0,74,0.00,,,0.00,Wunderground v.1.15,2013-11-08 07:15:00,
2013-11-08 01:24:00,33.3,25.9,30.26,SE,140,3.0,6.0,74,0.00,,,0.00,Wunderground v.1.15,2013-11-08 07:24:00,
2013-11-08 01:30:00,33.3,25.9,30.26,SE,143,4.0,4.0,74,0.00,,,0.00,Wunderground v.1.15,2013-11-08 07:30:00,
2013-11-08 01:35:00,33.4,26.0,30.25,SE,132,3.0,4.0,74,0.00,,,0.00,Wunderground v.1.15,2013-11-08 07:35:00,
2013-11-08 01:45:00,33.3,25.9,30.25,SE,130,1.0,2.0,74,0.00,,,0.00,Wunderground v.1.15,2013-11-08 07:45:00,
2013-11-08 01:54:00,33.7,26.3,30.25,SE,142,3.0,6.0,74,0.00,,,0.00,Wunderground v.1.15,2013-11-08 07:54:00,
2013-11-08 02:00:00,33.9,26.2,30.24,SE,140,4.0,4.0,73,0.00,,,0.00,Wunderground v.1.15,2013-11-08 08:00:00,
2013-11-08 02:05:00,34.1,26.0,30.24,SE,140,4.0,5.0,72,0.00,,,0.00,Wunderground v.1.15,2013-11-08 08:05:00,
2013-11-08 02:15:00,34.4,26.0,30.24,SE,140,5.0,5.0,71,0.00,,,0.00,Wunderground v.1.15,2013-11-08 08:15:00,
2013-11-08 02:25:00,34.4,25.6,30.23,SE,140,3.0,4.0,70,0.00,,,0.00,Wunderground v.1.15,2013-11-08 08:25:00,
2013-11-08 02:30:00,34.6,25.8,30.23,SE,135,4.0,4.0,70,0.00,,,0.00,Wunderground v.1.15,2013-11-08 08:30:00,
2013-11-08 02:40:00,35.1,25.6,30.22,SE,134,4.0,4.0,68,0.00,,,0.00,Wunderground v.1.15,2013-11-08 08:40:00,
2013-11-08 02:45:00,35.3,25.8,30.22,SE,137,4.0,4.0,68,0.00,,,0.00,Wunderground v.1.15,2013-11-08 08:45:00,
2013-11-08 02:54:00,35.5,25.6,30.22,SE,127,7.0,9.0,67,0.00,,,0.00,Wunderground v.1.15,2013-11-08 08:54:00,
2013-11-08 03:00:00,35.9,25.6,30.22,SE,141,8.0,12.0,66,0.00,,,0.00,Wunderground v.1.15,2013-11-08 09:00:00,
2013-11-08 03:05:00,35.9,25.6,30.22,SSE,161,8.0,12.0,66,0.00,,,0.00,Wunderground v.1.15,2013-11-08 09:05:00,
2013-11-08 03:15:00,35.6,26.1,30.22,SSE,159,6.0,7.0,68,0.00,,,0.00,Wunderground v.1.15,2013-11-08 09:15:00,
2013-11-08 03:25:00,35.4,26.2,30.22,SSE,161,5.0,5.0,69,0.00,,,0.00,Wunderground v.1.15,2013-11-08 09:25:00,
2013-11-08 03:30:00,35.3,26.1,30.21,SE,146,5.0,5.0,69,0.00,,,0.00,Wunderground v.1.15,2013-11-08 09:30:00,
2013-11-08 03:40:00,35.3,26.1,30.21,SE,140,5.0,5.0,69,0.00,,,0.00,Wunderground v.1.15,2013-11-08 09:40:00,
2013-11-08 03:45:00,35.3,26.1,30.20,SE,136,5.0,5.0,69,0.00,,,0.00,Wunderground v.1.15,2013-11-08 09:45:00,
2013-11-08 03:55:00,35.6,26.4,30.19,SE,136,4.0,5.0,69,0.00,,,0.00,Wunderground v.1.15,2013-11-08 09:55:00,
2013-11-08 04:00:00,35.9,26.4,30.19,SSE,154,5.0,5.0,68,0.00,,,0.00,Wunderground v.1.15,2013-11-08 10:00:00,
2013-11-08 04:05:00,36.3,26.4,30.19,SE,129,6.0,6.0,67,0.00,,,0.00,Wunderground v.1.15,2013-11-08 10:05:00,
2013-11-08 04:15:00,36.9,26.2,30.18,SE,129,6.0,7.0,65,0.00,,,0.00,Wunderground v.1.15,2013-11-08 10:15:00,
2013-11-08 04:25:00,37.1,26.4,30.18,SE,141,5.0,6.0,65,0.00,,,0.00,Wunderground v.1.15,2013-11-08 10:25:00,
2013-11-08 04:35:00,37.2,26.1,30.18,SE,134,7.0,13.0,64,0.00,,,0.00,Wunderground v.1.15,2013-11-08 10:35:00,
2013-11-08 04:40:00,37.3,26.2,30.17,SE,138,7.0,7.0,64,0.00,,,0.00,Wunderground v.1.15,2013-11-08 10:40:00,
2013-11-08 04:49:00,37.2,26.5,30.16,SE,144,8.0,9.0,65,0.00,,,0.00,Wunderground v.1.15,2013-11-08 10:49:00,
2013-11-08 04:55:00,37.3,26.2,30.16,ESE,123,9.0,9.0,64,0.00,,,0.00,Wunderground v.1.15,2013-11-08 10:55:00,
2013-11-08 05:00:00,37.3,26.6,30.16,SE,144,10.0,12.0,65,0.00,,,0.00,Wunderground v.1.15,2013-11-08 11:00:00,
2013-11-08 05:05:00,37.2,26.5,30.15,SE,138,9.0,16.0,65,0.00,,,0.00,Wunderground v.1.15,2013-11-08 11:05:00,
2013-11-08 05:14:00,37.1,26.4,30.15,SSE,152,9.0,10.0,65,0.00,,,0.00,Wunderground v.1.15,2013-11-08 11:14:00,
2013-11-08 05:20:00,37.2,26.5,30.14,SE,142,9.0,9.0,65,0.00,,,0.00,Wunderground v.1.15,2013-11-08 11:20:00,
2013-11-08 05:25:00,37.2,26.5,30.14,SSE,157,9.0,9.0,65,0.00,,,0.00,Wunderground v.1.15,2013-11-08 11:25:00,
2013-11-08 05:30:00,37.2,26.5,30.13,SE,138,8.0,8.0,65,0.00,,,0.00,Wunderground v.1.15,2013-11-08 11:30:00,
2013-11-08 05:40:00,37.2,26.5,30.13,SE,129,9.0,11.0,65,0.00,,,0.00,Wunderground v.1.15,2013-11-08 11:40:00,
2013-11-08 05:50:00,37.2,26.5,30.12,SE,136,7.0,7.0,65,0.00,,,0.00,Wunderground v.1.15,2013-11-08 11:50:00,
2013-11-08 05:55:00,37.2,26.5,30.12,SE,135,6.0,7.0,65,0.00,,,0.00,Wunderground v.1.15,2013-11-08 11:55:00,
2013-11-08 06:05:00,37.4,26.7,30.11,ESE,123,7.0,13.0,65,0.00,,,0.00,Wunderground v.1.15,2013-11-08 12:05:00,
2013-11-08 06:15:00,37.2,26.9,30.10,SE,136,9.0,11.0,66,0.00,,,0.00,Wunderground v.1.15,2013-11-08 12:15:00,
2013-11-08 06:25:00,37.1,27.2,30.10,SE,141,7.0,8.0,67,0.00,,,0.00,Wunderground v.1.15,2013-11-08 12:25:00,
2013-11-08 06:35:00,37.1,27.2,30.09,ESE,119,6.0,11.0,67,0.00,,,0.00,Wunderground v.1.15,2013-11-08 12:35:00,
2013-11-08 06:45:00,37.3,27.3,30.08,SE,130,8.0,12.0,67,0.00,,,0.00,Wunderground v.1.15,2013-11-08 12:45:00,
2013-11-08 06:55:00,37.7,27.4,30.08,SE,137,8.0,13.0,66,0.00,,,0.00,Wunderground v.1.15,2013-11-08 12:55:00,
2013-11-08 07:05:00,37.6,27.6,30.08,SE,140,8.0,12.0,67,0.00,,,0.00,Wunderground v.1.15,2013-11-08 13:05:00,
2013-11-08 07:15:00,37.5,27.5,30.07,SE,131,7.0,10.0,67,0.00,,,0.00,Wunderground v.1.15,2013-11-08 13:15:00,
2013-11-08 07:25:00,37.7,28.1,30.07,SE,127,7.0,8.0,68,0.00,,,0.00,Wunderground v.1.15,2013-11-08 13:25:00,
2013-11-08 07:35:00,37.8,28.2,30.05,SE,131,7.0,7.0,68,0.00,,,0.00,Wunderground v.1.15,2013-11-08 13:35:00,
2013-11-08 07:40:00,37.9,28.3,30.05,ESE,118,7.0,9.0,68,0.00,,,0.00,Wunderground v.1.15,2013-11-08 13:40:00,
2013-11-08 07:50:00,38.2,28.9,30.05,SE,145,8.0,12.0,69,0.00,,,0.00,Wunderground v.1.15,2013-11-08 13:50:00,
2013-11-08 08:00:00,38.7,29.0,30.04,SE,132,8.0,8.0,68,0.00,,,0.00,Wunderground v.1.15,2013-11-08 14:00:00,
2013-11-08 08:05:00,39.1,29.4,30.04,SE,140,7.0,8.0,68,0.00,,,0.00,Wunderground v.1.15,2013-11-08 14:05:00,
2013-11-08 08:15:00,39.9,29.8,30.03,SE,138,10.0,12.0,67,0.00,,,0.00,Wunderground v.1.15,2013-11-08 14:15:00,
2013-11-08 08:20:00,40.2,29.7,30.03,SE,140,10.0,10.0,66,0.00,,,0.00,Wunderground v.1.15,2013-11-08 14:20:00,
2013-11-08 08:30:00,40.6,30.1,30.02,SE,125,9.0,9.0,66,0.00,,,0.00,Wunderground v.1.15,2013-11-08 14:30:00,
2013-11-08 08:35:00,40.7,30.2,30.02,SE,138,10.0,12.0,66,0.00,,,0.00,Wunderground v.1.15,2013-11-08 14:35:00,
2013-11-08 08:45:00,40.9,30.4,30.02,SE,138,12.0,12.0,66,0.00,,,0.00,Wunderground v.1.15,2013-11-08 14:45:00,
2013-11-08 08:50:00,41.1,30.6,30.01,SE,138,12.0,12.0,66,0.00,,,0.00,Wunderground v.1.15,2013-11-08 14:50:00,
2013-11-08 09:00:00,41.6,31.4,30.00,SE,138,12.0,12.0,67,0.00,,,0.00,Wunderground v.1.15,2013-11-08 15:00:00,
2013-11-08 09:05:00,42.0,31.5,30.00,SE,138,12.0,12.0,66,0.00,,,0.00,Wunderground v.1.15,2013-11-08 15:05:00,
2013-11-08 09:15:00,42.7,31.7,29.99,SE,138,12.0,12.0,65,0.00,,,0.00,Wunderground v.1.15,2013-11-08 15:15:00,
2013-11-08 09:20:00,43.1,32.1,29.98,SE,138,12.0,12.0,65,0.00,,,0.00,Wunderground v.1.15,2013-11-08 15:20:00,
2013-11-08 09:30:00,43.7,32.3,29.97,SE,138,12.0,12.0,64,0.00,,,0.00,Wunderground v.1.15,2013-11-08 15:30:00,
2013-11-08 09:39:00,44.1,33.1,29.96,SE,138,12.0,12.0,65,0.00,,,0.00,Wunderground v.1.15,2013-11-08 15:39:00,
2013-11-08 09:45:00,44.4,33.4,29.96,SE,138,12.0,12.0,65,0.00,,,0.00,Wunderground v.1.15,2013-11-08 15:45:00,
2013-11-08 09:50:00,45.0,33.5,29.95,SE,138,12.0,12.0,64,0.00,,,0.00,Wunderground v.1.15,2013-11-08 15:50:00,
2013-11-08 10:00:00,46.3,34.0,29.94,SE,138,12.0,12.0,62,0.00,,,0.00,Wunderground v.1.15,2013-11-08 16:00:00,
2013-11-08 10:05:00,46.9,34.1,29.94,SE,138,12.0,12.0,61,0.00,,,0.00,Wunderground v.1.15,2013-11-08 16:05:00,
2013-11-08 10:15:00,47.8,34.6,29.94,SE,138,12.0,12.0,60,0.00,,,0.00,Wunderground v.1.15,2013-11-08 16:15:00,
2013-11-08 10:20:00,48.3,34.6,29.92,SE,138,12.0,12.0,59,0.00,,,0.00,Wunderground v.1.15,2013-11-08 16:20:00,
2013-11-08 10:30:00,48.8,34.7,29.91,SE,138,12.0,12.0,58,0.00,,,0.00,Wunderground v.1.15,2013-11-08 16:30:00,
2013-11-08 10:40:00,49.8,35.2,29.90,SE,138,12.0,12.0,57,0.00,,,0.00,Wunderground v.1.15,2013-11-08 16:40:00,
2013-11-08 10:45:00,50.1,35.4,29.90,SE,138,12.0,12.0,57,0.00,,,0.00,Wunderground v.1.15,2013-11-08 16:45:00,
2013-11-08 10:55:00,50.8,35.7,29.89,SE,138,12.0,12.0,56,0.00,,,0.00,Wunderground v.1.15,2013-11-08 16:55:00,
2013-11-08 11:00:00,50.9,35.7,29.89,SE,138,12.0,12.0,56,0.00,,,0.00,Wunderground v.1.15,2013-11-08 17:00:00,
2013-11-08 11:05:00,51.3,36.1,29.88,SSE,162,13.0,13.0,56,0.00,,,0.00,Wunderground v.1.15,2013-11-08 17:05:00,
2013-11-08 11:15:00,52.2,36.5,29.88,SE,136,14.0,16.0,55,0.00,,,0.00,Wunderground v.1.15,2013-11-08 17:15:00,
2013-11-08 11:25:00,53.0,37.3,29.87,SSE,148,10.0,13.0,55,0.00,,,0.00,Wunderground v.1.15,2013-11-08 17:25:00,
2013-11-08 11:30:00,53.5,37.3,29.86,SSE,147,10.0,10.0,54,0.00,,,0.00,Wunderground v.1.15,2013-11-08 17:30:00,
2013-11-08 11:40:00,54.4,37.1,29.86,South,172,12.0,13.0,52,0.00,,,0.00,Wunderground v.1.15,2013-11-08 17:40:00,
2013-11-08 11:45:00,54.8,37.5,29.85,South,178,10.0,13.0,52,0.00,,,0.00,Wunderground v.1.15,2013-11-08 17:45:00,
2013-11-08 11:55:00,56.1,36.7,29.83,SE,143,13.0,16.0,48,0.00,,,0.00,Wunderground v.1.15,2013-11-08 17:55:00,
2013-11-08 12:05:00,57.0,37.0,29.83,SW,224,15.0,18.0,47,0.00,,,0.00,Wunderground v.1.15,2013-11-08 18:05:00,
2013-11-08 12:14:00,57.9,36.1,29.81,SSW,196,15.0,22.0,44,0.00,,,0.00,Wunderground v.1.15,2013-11-08 18:14:00,
2013-11-08 12:19:00,58.1,36.3,29.82,SSW,207,16.0,16.0,44,0.00,,,0.00,Wunderground v.1.15,2013-11-08 18:19:00,
2013-11-08 12:25:00,58.4,36.0,29.82,South,186,17.0,17.0,43,0.00,,,0.00,Wunderground v.1.15,2013-11-08 18:25:00,
2013-11-08 12:35:00,58.8,36.3,29.81,SSW,208,15.0,20.0,43,0.00,,,0.00,Wunderground v.1.15,2013-11-08 18:35:00,
2013-11-08 12:40:00,59.0,37.7,29.80,SSW,200,16.0,16.0,45,0.00,,,0.00,Wunderground v.1.15,2013-11-08 18:40:00,
2013-11-08 12:50:00,59.0,37.1,29.79,SSW,198,17.0,17.0,44,0.00,,,0.00,Wunderground v.1.15,2013-11-08 18:50:00,
2013-11-08 13:00:00,59.7,37.2,29.78,South,184,15.0,19.0,43,0.00,,,0.00,Wunderground v.1.15,2013-11-08 19:00:00,
2013-11-08 13:05:00,60.0,38.6,29.78,SSE,159,15.0,20.0,45,0.00,,,0.00,Wunderground v.1.15,2013-11-08 19:05:00,
2013-11-08 13:14:00,60.2,37.6,29.77,SSW,196,13.0,16.0,43,0.00,,,0.00,Wunderground v.1.15,2013-11-08 19:14:00,
2013-11-08 13:24:00,60.5,37.9,29.76,SSE,150,14.0,17.0,43,0.00,,,0.00,Wunderground v.1.15,2013-11-08 19:24:00,
2013-11-08 13:30:00,60.9,37.6,29.76,SSW,212,14.0,14.0,42,0.00,,,0.00,Wunderground v.1.15,2013-11-08 19:30:00,
2013-11-08 13:40:00,61.9,37.3,29.76,SSW,205,16.0,17.0,40,0.00,,,0.00,Wunderground v.1.15,2013-11-08 19:40:00,
2013-11-08 13:49:00,62.7,36.7,29.75,SSW,211,15.0,15.0,38,0.00,,,0.00,Wunderground v.1.15,2013-11-08 19:49:00,
2013-11-08 13:54:00,63.0,37.6,29.76,South,173,15.0,15.0,39,0.00,,,0.00,Wunderground v.1.15,2013-11-08 19:54:00,
2013-11-08 14:00:00,63.1,37.1,29.76,SW,222,16.0,24.0,38,0.00,,,0.00,Wunderground v.1.15,2013-11-08 20:00:00,
2013-11-08 14:05:00,63.2,37.8,29.76,SW,232,15.0,24.0,39,0.00,,,0.00,Wunderground v.1.15,2013-11-08 20:05:00,
2013-11-08 14:15:00,63.5,37.4,29.76,SW,216,15.0,19.0,38,0.00,,,0.00,Wunderground v.1.15,2013-11-08 20:15:00,
2013-11-08 14:24:00,63.7,38.3,29.75,SW,223,15.0,22.0,39,0.00,,,0.00,Wunderground v.1.15,2013-11-08 20:24:00,
2013-11-08 14:30:00,63.9,37.8,29.75,WSW,240,14.0,14.0,38,0.00,,,0.00,Wunderground v.1.15,2013-11-08 20:30:00,
2013-11-08 14:40:00,63.7,37.6,29.75,SW,223,14.0,14.0,38,0.00,,,0.00,Wunderground v.1.15,2013-11-08 20:40:00,
2013-11-08 14:50:00,62.8,37.5,29.75,WSW,238,15.0,15.0,39,0.00,,,0.00,Wunderground v.1.15,2013-11-08 20:50:00,
2013-11-08 14:55:00,62.5,37.2,29.75,South,191,14.0,15.0,39,0.00,,,0.00,Wunderground v.1.15,2013-11-08 20:55:00,
2013-11-08 15:05:00,62.2,37.6,29.74,SSW,210,16.0,17.0,40,0.00,,,0.00,Wunderground v.1.15,2013-11-08 21:05:00,
2013-11-08 15:15:00,62.0,37.4,29.74,SW,222,12.0,17.0,40,0.00,,,0.00,Wunderground v.1.15,2013-11-08 21:15:00,
2013-11-08 15:20:00,61.9,37.9,29.74,SSW,197,14.0,23.0,41,0.00,,,0.00,Wunderground v.1.15,2013-11-08 21:20:00,
2013-11-08 15:30:00,61.8,37.2,29.75,SW,215,14.0,19.0,40,0.00,,,0.00,Wunderground v.1.15,2013-11-08 21:30:00,
2013-11-08 15:35:00,61.6,37.0,29.75,SW,222,13.0,19.0,40,0.00,,,0.00,Wunderground v.1.15,2013-11-08 21:35:00,
2013-11-08 15:45:00,61.4,37.5,29.75,SW,220,11.0,14.0,41,0.00,,,0.00,Wunderground v.1.15,2013-11-08 21:45:00,
2013-11-08 15:55:00,61.1,37.2,29.76,SSW,207,9.0,14.0,41,0.00,,,0.00,Wunderground v.1.15,2013-11-08 21:55:00,
2013-11-08 16:00:00,61.0,37.1,29.76,SSW,211,11.0,11.0,41,0.00,,,0.00,Wunderground v.1.15,2013-11-08 22:00:00,
2013-11-08 16:05:00,60.9,37.0,29.76,SW,221,11.0,11.0,41,0.00,,,0.00,Wunderground v.1.15,2013-11-08 22:05:00,
2013-11-08 16:15:00,60.5,36.7,29.77,SW,235,8.0,9.0,41,0.00,,,0.00,Wunderground v.1.15,2013-11-08 22:15:00,
2013-11-08 16:25:00,60.3,37.1,29.77,WSW,241,7.0,9.0,42,0.00,,,0.00,Wunderground v.1.15,2013-11-08 22:25:00,
2013-11-08 16:35:00,60.2,37.6,29.76,SW,217,5.0,8.0,43,0.00,,,0.00,Wunderground v.1.15,2013-11-08 22:35:00,
2013-11-08 16:40:00,60.0,37.4,29.76,SSW,207,5.0,5.0,43,0.00,,,0.00,Wunderground v.1.15,2013-11-08 22:40:00,
2013-11-08 16:50:00,59.7,37.2,29.75,SW,221,5.0,5.0,43,0.00,,,0.00,Wunderground v.1.15,2013-11-08 22:50:00,
2013-11-08 16:55:00,59.5,37.0,29.75,SW,214,5.0,5.0,43,0.00,,,0.00,Wunderground v.1.15,2013-11-08 22:55:00,
2013-11-08 17:05:00,59.0,37.1,29.76,SW,222,5.0,5.0,44,0.00,,,0.00,Wunderground v.1.15,2013-11-08 23:05:00,
2013-11-08 17:15:00,59.0,37.7,29.76,SW,217,5.0,5.0,45,0.00,,,0.00,Wunderground v.1.15,2013-11-08 23:15:00,
2013-11-08 17:20:00,59.0,37.7,29.77,SW,221,5.0,5.0,45,0.00,,,0.00,Wunderground v.1.15,2013-11-08 23:20:00,
2013-11-08 17:25:00,58.9,37.6,29.78,SW,223,4.0,5.0,45,0.00,,,0.00,Wunderground v.1.15,2013-11-08 23:25:00,
2013-11-08 17:35:00,58.4,37.7,29.77,SW,225,2.0,3.0,46,0.00,,,0.00,Wunderground v.1.15,2013-11-08 23:35:00,
2013-11-08 17:40:00,58.2,37.5,29.77,SW,225,2.0,4.0,46,0.00,,,0.00,Wunderground v.1.15,2013-11-08 23:40:00,
2013-11-08 17:50:00,57.9,37.2,29.78,SW,225,2.0,2.0,46,0.00,,,0.00,Wunderground v.1.15,2013-11-08 23:50:00,
2013-11-08 18:00:00,57.5,37.4,29.79,SW,226,2.0,3.0,47,0.00,,,0.00,Wunderground v.1.15,2013-11-09 00:00:00,
2013-11-08 18:05:00,57.3,37.2,29.79,SW,226,2.0,3.0,47,0.00,,,0.00,Wunderground v.1.15,2013-11-09 00:05:00,
2013-11-08 18:15:00,56.8,37.3,29.79,SW,226,2.0,2.0,48,0.00,,,0.00,Wunderground v.1.15,2013-11-09 00:15:00,
2013-11-08 18:20:00,56.5,37.0,29.80,SW,226,2.0,2.0,48,0.00,,,0.00,Wunderground v.1.15,2013-11-09 00:20:00,
2013-11-08 18:30:00,56.1,37.2,29.80,SW,226,2.0,3.0,49,0.00,,,0.00,Wunderground v.1.15,2013-11-09 00:30:00,
2013-11-08 18:35:00,55.9,37.0,29.80,SW,226,2.0,3.0,49,0.00,,,0.00,Wunderground v.1.15,2013-11-09 00:35:00,
2013-11-08 18:45:00,55.7,37.3,29.81,SW,226,2.0,3.0,50,0.00,,,0.00,Wunderground v.1.15,2013-11-09 00:45:00,
2013-11-08 18:54:00,55.4,37.1,29.81,SW,226,2.0,2.0,50,0.00,,,0.00,Wunderground v.1.15,2013-11-09 00:54:00,
2013-11-08 19:00:00,55.3,37.5,29.82,SW,226,2.0,2.0,51,0.00,,,0.00,Wunderground v.1.15,2013-11-09 01:00:00,
2013-11-08 19:05:00,55.1,37.3,29.82,SW,226,2.0,2.0,51,0.00,,,0.00,Wunderground v.1.15,2013-11-09 01:05:00,
2013-11-08 19:15:00,54.8,37.5,29.82,SW,226,1.0,1.0,52,0.00,,,0.00,Wunderground v.1.15,2013-11-09 01:15:00,
2013-11-08 19:25:00,54.4,37.1,29.82,SW,226,0.0,1.0,52,0.00,,,0.00,Wunderground v.1.15,2013-11-09 01:25:00,
2013-11-08 19:34:00,54.1,37.3,29.82,SW,226,1.0,1.0,53,0.00,,,0.00,Wunderground v.1.15,2013-11-09 01:34:00,
2013-11-08 19:40:00,53.9,37.1,29.83,SW,226,1.0,2.0,53,0.00,,,0.00,Wunderground v.1.15,2013-11-09 01:40:00,
2013-11-08 19:50:00,53.3,37.1,29.84,WSW,245,3.0,3.0,54,0.00,,,0.00,Wunderground v.1.15,2013-11-09 01:50:00,
2013-11-08 19:55:00,53.0,37.3,29.84,WSW,251,3.0,3.0,55,0.00,,,0.00,Wunderground v.1.15,2013-11-09 01:55:00,
2013-11-08 20:05:00,52.6,37.3,29.83,West,266,3.0,5.0,56,0.00,,,0.00,Wunderground v.1.15,2013-11-09 02:05:00,
2013-11-08 20:15:00,52.3,37.5,29.84,West,267,3.0,4.0,57,0.00,,,0.00,Wunderground v.1.15,2013-11-09 02:15:00,
2013-11-08 20:20:00,52.2,37.9,29.84,West,269,3.0,3.0,58,0.00,,,0.00,Wunderground v.1.15,2013-11-09 02:20:00,
2013-11-08 20:30:00,51.9,38.0,29.85,West,271,4.0,4.0,59,0.00,,,0.00,Wunderground v.1.15,2013-11-09 02:30:00,
2013-11-08 20:35:00,51.8,38.3,29.85,West,275,4.0,5.0,60,0.00,,,0.00,Wunderground v.1.15,2013-11-09 02:35:00,
2013-11-08 20:45:00,51.6,38.6,29.85,WNW,284,3.0,4.0,61,0.00,,,0.00,Wunderground v.1.15,2013-11-09 02:45:00,
2013-11-08 20:54:00,51.5,38.5,29.86,WNW,283,3.0,3.0,61,0.00,,,0.00,Wunderground v.1.15,2013-11-09 02:54:00,
2013-11-08 21:00:00,51.3,38.3,29.86,WNW,284,3.0,3.0,61,0.00,,,0.00,Wunderground v.1.15,2013-11-09 03:00:00,
2013-11-08 21:05:00,51.2,38.2,29.86,WNW,284,3.0,3.0,61,0.00,,,0.00,Wunderground v.1.15,2013-11-09 03:05:00,
2013-11-08 21:15:00,50.9,38.3,29.87,WNW,289,3.0,4.0,62,0.00,,,0.00,Wunderground v.1.15,2013-11-09 03:15:00,
2013-11-08 21:25:00,50.5,38.4,29.87,WNW,296,2.0,3.0,63,0.00,,,0.00,Wunderground v.1.15,2013-11-09 03:25:00,
2013-11-08 21:30:00,50.3,38.2,29.87,WNW,296,3.0,3.0,63,0.00,,,0.00,Wunderground v.1.15,2013-11-09 03:30:00,
2013-11-08 21:35:00,50.2,38.5,29.87,WNW,296,3.0,3.0,64,0.00,,,0.00,Wunderground v.1.15,2013-11-09 03:35:00,
2013-11-08 21:45:00,49.9,38.2,29.88,WNW,284,3.0,3.0,64,0.00,,,0.00,Wunderground v.1.15,2013-11-09 03:45:00,
2013-11-08 21:55:00,49.6,38.3,29.88,WNW,300,3.0,3.0,65,0.00,,,0.00,Wunderground v.1.15,2013-11-09 03:55:00,
2013-11-08 22:00:00,49.5,38.2,29.89,WNW,300,2.0,4.0,65,0.00,,,0.00,Wunderground v.1.15,2013-11-09 04:00:00,
2013-11-08 22:05:00,49.4,38.5,29.89,NW,304,3.0,4.0,66,0.00,,,0.00,Wunderground v.1.15,2013-11-09 04:05:00,
2013-11-08 22:15:00,49.2,38.3,29.90,WNW,288,3.0,5.0,66,0.00,,,0.00,Wunderground v.1.15,2013-11-09 04:15:00,
2013-11-08 22:25:00,49.0,38.5,29.90,WNW,290,2.0,3.0,67,0.00,,,0.00,Wunderground v.1.15,2013-11-09 04:25:00,
2013-11-08 22:35:00,48.8,38.3,29.91,WNW,289,3.0,3.0,67,0.00,,,0.00,Wunderground v.1.15,2013-11-09 04:35:00,
2013-11-08 22:40:00,48.7,38.2,29.90,WNW,289,3.0,3.0,67,0.00,,,0.00,Wunderground v.1.15,2013-11-09 04:40:00,
2013-11-08 22:50:00,48.5,38.0,29.90,WNW,286,3.0,5.0,67,0.00,,,0.00,Wunderground v.1.15,2013-11-09 04:50:00,
2013-11-08 23:00:00,48.2,38.1,29.91,West,271,4.0,4.0,68,0.00,,,0.00,Wunderground v.1.15,2013-11-09 05:00:00,
2013-11-08 23:05:00,48.1,38.0,29.90,West,271,2.0,4.0,68,0.00,,,0.00,Wunderground v.1.15,2013-11-09 05:05:00,
2013-11-08 23:10:00,48.0,37.9,29.90,West,271,1.0,2.0,68,0.00,,,0.00,Wunderground v.1.15,2013-11-09 05:10:00,
2013-11-08 23:15:00,47.8,37.7,29.90,West,271,2.0,2.0,68,0.00,,,0.00,Wunderground v.1.15,2013-11-09 05:15:00,
2013-11-08 23:19:00,47.7,37.7,29.90,West,271,3.0,3.0,68,0.00,,,0.00,Wunderground v.1.15,2013-11-09 05:19:00,
2013-11-08 23:25:00,47.5,37.5,29.90,West,271,3.0,3.0,68,0.00,,,0.00,Wunderground v.1.15,2013-11-09 05:25:00,
2013-11-08 23:30:00,47.3,37.3,29.90,West,271,2.0,2.0,68,0.00,,,0.00,Wunderground v.1.15,2013-11-09 05:30:00,
2013-11-08 23:35:00,47.1,37.1,29.90,West,273,2.0,2.0,68,0.00,,,0.00,Wunderground v.1.15,2013-11-09 05:35:00,
2013-11-08 23:45:00,46.7,37.1,29.91,West,273,3.0,3.0,69,0.00,,,0.00,Wunderground v.1.15,2013-11-09 05:45:00,
2013-11-08 23:55:00,46.5,36.9,29.91,West,274,3.0,4.0,69,0.00,,,0.00,Wunderground v.1.15,2013-11-09 05:55:00,